This demonstration page uses our WeatherBlox Daily Observations layout. Learn more.

Left ArrowRight Arrow

34.16533, -84.80231

Hourly Observations for October 26, 2019

Temp ( °F °C ) Dew Point ( °F °C ) Humidity (%) Winds ( mph kmh ) Pressure ( in mb ) Visibility ( mi km ) Precip ( " mm )
12:12 am 00:12 Cloudy 66 18.9 63 17.2 90 90 E 6 9 30.06 1018 10 16 0.00 0.00
12:42 am 00:42 Cloudy 66 18.9 63 17.2 90 90 E 3 6 30.03 1017 9 14 0.00 0.00
12:53 am 00:53 Cloudy 66 18.9 64 17.8 93 93 VRB 3 6 30.04 1017 8 13 0.00 0.00
1:39 am 01:39 Cloudy with Light Rain 67 19.4 64 17.8 91 91 VRB 5 7 30.03 1017 6 10 0.02 0.51
1:53 am 01:53 Cloudy with Light Rain 67 19.4 65 18.3 93 93 ESE 5 7 30.02 1017 5 8 0.04 1.02
2:23 am 02:23 Cloudy 68 20 65 18.3 90 90 Calm 30.03 1017 10 16 0.00 0.00
2:34 am 02:34 Cloudy 68 20 65 18.3 90 90 VRB 3 6 30.03 1017 10 16 0.00 0.00
2:53 am 02:53 Cloudy 68 20 65 18.3 90 90 VRB 5 7 30.01 1016 10 16 0.00 0.00
3:26 am 03:26 Cloudy 69 20.6 66 18.9 90 90 ESE 7 11 30.03 1017 10 16 0.00 0.00
3:53 am 03:53 Cloudy 69 20.6 66 18.9 90 90 VRB 5 7 29.99 1016 10 16 0.00 0.00
4:53 am 04:53 Cloudy 69 20.6 65 18.3 87 87 VRB 6 9 29.97 1015 10 16 0.00 0.00
5:53 am 05:53 Cloudy 69 20.6 65 18.3 87 87 ESE 9 15 29.95 1014 10 16 0.00 0.00
6:53 am 06:53 Cloudy 69 20.6 65 18.3 87 87 SE 9 15 29.96 1014 10 16 0.00 0.00
7:23 am 07:23 Cloudy 68 20 65 18.3 90 90 ESE 8 13 29.97 1015 10 16 0.00 0.00
7:53 am 07:53 Cloudy 68 20 64 17.8 87 87 ESE 10 17 29.94 1014 10 16 0.00 0.00
8:53 am 08:53 Cloudy 69 20.6 64 17.8 84 84 SE 13 20 29.93 1013 10 16 0.00 0.00
9:38 am 09:38 Cloudy 69 20.6 64 17.8 84 84 SE 7 11 29.97 1015 10 16 0.00 0.00
9:53 am 09:53 Cloudy with Light Rain 70 21.1 64 17.8 82 82 SE 9 15 29.94 1014 9 14 0.00 0.00
10:53 am 10:53 Cloudy 70 21.1 65 18.3 84 84 SE 10 17 29.93 1014 10 16 0.01 0.25
11:53 am 11:53 Cloudy 71 21.7 65 18.3 81 81 VRB 6 9 29.92 1013 10 16 0.00 0.00
12:53 pm 12:53 Cloudy 71 21.7 66 18.9 84 84 ESE 10 17 29.89 1012 8 13 0.00 0.00
1:53 pm 13:53 Cloudy 72 22.2 66 18.9 82 82 ESE 9 15 29.85 1011 10 16 0.00 0.00
2:53 pm 14:53 Cloudy 73 22.8 67 19.4 81 81 SSE 9 15 29.83 1010 10 16 0.00 0.00
3:30 pm 15:30 Cloudy 73 22.8 67 19.4 81 81 VRB 7 11 29.80 1009 10 16 0.00 0.00
3:53 pm 15:53 Cloudy 74 23.3 67 19.4 79 79 SE 12 19 29.79 1009 10 16 0.00 0.00
4:53 pm 16:53 Cloudy with Light Rain 71 21.7 68 20 90 90 ESE 9 15 29.78 1009 5 8 0.01 0.25
5:53 pm 17:53 Cloudy 71 21.7 68 20 90 90 VRB 6 9 29.77 1008 8 13 0.00 0.00
6:05 pm 18:05 Cloudy 71 21.7 69 20.6 94 94 VRB 7 11 29.80 1009 9 14 0.00 0.00
6:33 pm 18:33 Cloudy with Mist and Fog 71 21.7 69 20.6 94 94 VRB 6 9 29.80 1009 5 8 0.00 0.00
6:40 pm 18:40 Cloudy with Mist and Fog 72 22.2 69 20.6 91 91 ESE 7 11 29.80 1009 6 10 0.01 0.25
6:51 pm 18:51 Cloudy 72 22 70 21 94 94 VRB 7 11 29.80 1009 9 14 0.01 0.25
6:53 pm 18:53 Cloudy 72 22.2 69 20.6 91 91 ESE 10 17 29.77 1008 9 14 0.01 0.25
7:03 pm 19:03 Cloudy 72 22.2 69 20.6 91 91 ESE 8 13 29.80 1009 10 16 0.00 0.00
7:53 pm 19:53 Cloudy 73 22.8 69 20.6 87 87 SE 8 13 29.75 1007 10 16 0.00 0.00
8:53 pm 20:53 Cloudy with Light Rain 73 22.8 70 21.1 90 90 SSW 9 15 29.75 1008 3 5 0.06 1.52
9:01 pm 21:01 Cloudy with Light Rain 73 22.8 70 21.1 90 90 SE 7 11 29.74 1007 3 5 0.02 0.51
9:11 pm 21:11 Cloudy with Rain 73 22.8 70 21.1 90 90 ESE 12 19 29.74 1007 4 6 0.04 1.02
9:15 pm 21:15 Cloudy with Light Rain 73 22.8 70 21.1 90 90 SE 8 13 29.74 1007 4 6 0.04 1.02
9:51 pm 21:51 Cloudy with Light Rain 73 23 70 21 89 89 SSE 13 20 29.74 1007 6 10 0.08 2.03
9:53 pm 21:53 Cloudy with Light Rain 74 23.3 70 21.1 88 88 SE 9 15 29.73 1007 6 10 0.08 2.03
10:24 pm 22:24 Cloudy with Light Rain 74 23.3 70 21.1 88 88 SW 7 11 29.77 1008 9 14 0.02 0.51
10:29 pm 22:29 Cloudy with Light Rain 73 22.8 70 21.1 90 90 VRB 3 6 29.74 1007 7 11 0.02 0.51
10:39 pm 22:39 Cloudy with Heavy Rain 73 22.8 71 21.7 94 94 VRB 3 6 29.74 1007 3 4 0.06 1.52
10:51 pm 22:51 Cloudy with Light Rain 73 23 70 21 89 89 VRB 5 7 29.77 1008 8 13 0.07 1.78
10:53 pm 22:53 Cloudy with Light Rain 73 22.8 70 21.1 90 90 SSW 3 6 29.76 1008 7 11 0.08 2.03
10:59 pm 22:59 Cloudy with Heavy Rain 72 22.2 70 21.1 94 94 VRB 3 6 29.80 1009 2 3 0.06 1.52
11:15 pm 23:15 Cloudy with Rain 72 22.2 71 21.7 97 97 Calm 29.80 1009 2 3 0.13 3.30
11:22 pm 23:22 Cloudy with Heavy Rain 72 22.2 71 21.7 97 97 Calm 29.80 1009 2 3 0.22 5.59
11:29 pm 23:29 Cloudy with Heavy Rain 71 21.7 69 20.6 94 94 WSW 7 11 29.80 1009 1 1 0.39 9.91
11:33 pm 23:33 Cloudy with Heavy Rain 70 21.1 68 20 93 93 VRB 6 9 29.80 1009 1 2 0.43 10.92
11:37 pm 23:37 Cloudy with Rain 71 21.7 68 20 90 90 VRB 6 9 29.80 1009 2 2 0.44 11.18
11:39 pm 23:39 Cloudy with Rain 71 21.7 68 20 90 90 VRB 6 9 29.80 1009 2 3 0.45 11.43
11:44 pm 23:44 Cloudy with Light Rain 71 21.7 68 20 90 90 VRB 5 7 29.80 1009 4 6 0.45 11.43
11:53 pm 23:53 Cloudy 71 21.7 68 20 90 90 VRB 3 6 29.78 1008 10 16 0.45 11.43

Powered by AerisWeather